TimeEDT,TemperatureF,Dew PointF,Humidity,Sea Level PressureIn,VisibilityMPH,Wind Direction,Wind SpeedMPH,Gust SpeedMPH,PrecipitationIn,Events,Conditions,WindDirDegrees,DateUTC
12:00 AM,57.2,50.0,77,29.50,25.0,NE,23.0,41.4,N/A,,Mostly Cloudy,50,2012-10-30 04:00:00
1:00 AM,57.2,51.8,82,29.49,25.0,NE,17.3,34.5,N/A,,Overcast,50,2012-10-30 05:00:00
2:00 AM,55.4,51.8,88,29.48,25.0,NE,19.6,36.8,N/A,,Overcast,50,2012-10-30 06:00:00
3:00 AM,55.4,51.8,88,29.48,25.0,ENE,21.9,39.1,N/A,,Mostly Cloudy,60,2012-10-30 07:00:00
4:00 AM,55.4,51.8,88,29.47,25.0,NE,17.3,35.7,N/A,,Overcast,50,2012-10-30 08:00:00
4:14 AM,55.4,51.8,88,29.47,25.0,NE,15.0,32.2,N/A,Rain,Light Rain Showers,50,2012-10-30 08:14:00
5:00 AM,55.4,51.8,88,29.48,25.0,NE,19.6,33.4,N/A,Rain,Light Rain Showers,50,2012-10-30 09:00:00
6:00 AM,53.6,50.0,88,29.49,25.0,NE,17.3,32.2,N/A,,Mostly Cloudy,50,2012-10-30 10:00:00
7:00 AM,53.6,50.0,88,29.50,45.0,NE,12.7,24.2,N/A,,Mostly Cloudy,50,2012-10-30 11:00:00
8:00 AM,55.4,51.8,88,29.51,45.0,ENE,15.0,27.6,N/A,,Mostly Cloudy,60,2012-10-30 12:00:00
8:16 AM,55.4,51.8,88,29.53,15.0,ENE,11.5,24.2,N/A,Rain,Light Rain Showers,60,2012-10-30 12:16:00
9:00 AM,55.4,51.8,88,29.53,45.0,ENE,17.3,28.8,N/A,,Mostly Cloudy,60,2012-10-30 13:00:00
10:00 AM,57.2,53.6,88,29.55,30.0,NE,13.8,20.7,N/A,Rain,Light Rain Showers,50,2012-10-30 14:00:00
10:36 AM,57.2,53.6,88,29.55,45.0,ENE,16.1,28.8,N/A,,Mostly Cloudy,60,2012-10-30 14:36:00
11:00 AM,59.0,55.4,88,29.55,30.0,ENE,13.8,23.0,N/A,,Mostly Cloudy,60,2012-10-30 15:00:00
11:13 AM,59.0,55.4,88,29.56,15.0,ENE,13.8,21.9,N/A,Rain,Light Rain Showers,60,2012-10-30 15:13:00
1:00 PM,57.2,-9999,N/A,-9999,15.0,North,10.4,17.3,N/A,Rain,Light Rain Showers,360,2012-10-30 17:00:00
2:00 PM,62.6,-9999,N/A,29.54,25.0,NE,5.8,-,N/A,,Mostly Cloudy,50,2012-10-30 18:00:00
3:00 PM,66.2,-9999,N/A,-9999,45.0,North,10.4,-,N/A,,Mostly Cloudy,10,2012-10-30 19:00:00
4:00 PM,69.8,53.6,56,29.53,45.0,ESE,23.0,29.9,N/A,,Scattered Clouds,110,2012-10-30 20:00:00
6:00 PM,66.2,50.0,56,29.55,25.0,East,11.5,-,N/A,,Mostly Cloudy,100,2012-10-30 22:00:00
7:00 PM,62.6,55.4,77,29.55,25.0,ENE,10.4,-,N/A,,Mostly Cloudy,60,2012-10-30 23:00:00
8:00 PM,59.0,55.4,88,29.56,25.0,NE,8.1,-,N/A,,Mostly Cloudy,50,2012-10-31 00:00:00
9:00 PM,60.8,55.4,82,29.56,25.0,ENE,13.8,20.7,N/A,,Mostly Cloudy,60,2012-10-31 01:00:00
9:09 PM,59.0,55.4,88,29.56,25.0,ENE,11.5,21.9,N/A,Rain,Light Rain Showers,60,2012-10-31 01:09:00
10:00 PM,59.0,57.2,94,29.57,10.0,NE,12.7,20.7,N/A,Rain,Light Rain Showers,50,2012-10-31 02:00:00
11:00 PM,57.2,57.2,100,29.53,15.0,ENE,10.4,-,N/A,Rain,Light Rain Showers,60,2012-10-31 03:00:00